sat.trackr.live / text

‹ back to catalog

IRIDIUM 145

NORAD 43253 · 2018-030E

PAYLOAD ACTIVE UNKNOWN

§ Identity

Operator
Country
US
Launch date
2018-03-30
Launch site
AFWTR
Launch vehicle
Mass (kg)
RCS (m²)

Purposes: comms

External: N2YO · Heavens-Above · Gunter

§ Orbital elements

Epoch: 2026-09-20T03:32:23.345088Z

Period
100.40 min
Inclination
86.3915°
Eccentricity
0.0001902
Mean motion
14.34217217 rev/d
Perigee alt
776.3 km
Apogee alt
779.0 km
Semi-major
7,155.8 km
B*
-1.4591e-5
RAAN
250.6813°
Arg perigee
86.0741°
Mean anomaly
274.0672°
Rev number
44,373

§ Raw data

IRIDIUM 1451 43253U 18030E   26263.14749242 -.00000021  00000+0 -14591-4 0  99992 43253  86.3915 250.6813 0001902  86.0741 274.0672 14.34217217443735

JSON: /api/v1/satellites/43253 · /tle

For live sub-satellite position, see the globe view (requires WebGL).

§ Visibility from observer

Set your observer location to see the next 7 days of passes ≥ 10°. The values pass through the URL so the page stays shareable.

No JS? Fill the form by hand. The geolocation button needs JavaScript.